Time,TemperatureF,DewpointF,PressureIn,WindDirection,WindDirectionDegrees,WindSpeedMPH,WindSpeedGustMPH,Humidity,HourlyPrecipIn,Conditions,Clouds,dailyrainin,SoftwareType,DateUTC
2013-03-26 00:05:00,33.3,27.0,30.12,NW,325,6.0,-999.0,77,-99.99,,,0.00,weatherlink.com 1.10,2013-03-26 04:05:00,
2013-03-26 00:20:00,33.4,27.0,30.11,NNW,336,11.0,-999.0,78,-99.99,,,0.00,weatherlink.com 1.10,2013-03-26 04:20:00,
2013-03-26 00:35:00,33.2,27.0,30.11,NW,326,9.0,-999.0,78,-99.99,,,0.00,weatherlink.com 1.10,2013-03-26 04:35:00,
2013-03-26 00:50:00,33.2,27.0,30.12,NNW,330,11.0,-999.0,78,-99.99,,,0.00,weatherlink.com 1.10,2013-03-26 04:50:00,
2013-03-26 01:05:00,33.0,27.0,30.12,NNW,331,6.0,-999.0,80,-99.99,,,0.00,weatherlink.com 1.10,2013-03-26 05:05:00,
2013-03-26 01:20:00,32.8,27.0,30.12,NW,316,9.0,-999.0,80,-99.99,,,0.00,weatherlink.com 1.10,2013-03-26 05:20:00,
2013-03-26 01:35:00,32.8,27.0,30.12,NW,312,7.0,-999.0,80,-99.99,,,0.00,weatherlink.com 1.10,2013-03-26 05:35:00,
2013-03-26 02:05:00,33.0,27.0,30.12,West,273,5.0,-999.0,79,-99.99,,,0.00,weatherlink.com 1.10,2013-03-26 06:05:00,
2013-03-26 02:20:00,33.0,27.0,30.13,NNW,328,6.0,-999.0,79,-99.99,,,0.00,weatherlink.com 1.10,2013-03-26 06:20:00,
2013-03-26 02:35:00,32.8,27.0,30.12,NW,320,7.0,-999.0,79,-99.99,,,0.00,weatherlink.com 1.10,2013-03-26 06:35:00,
2013-03-26 02:50:00,32.5,27.0,30.12,NW,317,7.0,-999.0,79,-99.99,,,0.00,weatherlink.com 1.10,2013-03-26 06:50:00,
2013-03-26 03:05:00,32.4,26.0,30.11,North,355,7.0,-999.0,78,-99.99,,,0.00,weatherlink.com 1.10,2013-03-26 07:05:00,
2013-03-26 03:20:00,32.1,26.0,30.11,NNW,342,6.0,-999.0,79,-99.99,,,0.00,weatherlink.com 1.10,2013-03-26 07:20:00,
2013-03-26 03:35:00,31.9,27.0,30.11,NW,320,8.0,-999.0,81,-99.99,,,0.00,weatherlink.com 1.10,2013-03-26 07:35:00,
2013-03-26 03:50:00,32.0,27.0,30.11,NNW,330,4.0,-999.0,81,-99.99,,,0.00,weatherlink.com 1.10,2013-03-26 07:50:00,
2013-03-26 04:05:00,32.3,27.0,30.11,NNW,330,3.0,-999.0,81,-99.99,,,0.00,weatherlink.com 1.10,2013-03-26 08:05:00,
2013-03-26 04:20:00,32.2,27.0,30.11,NNW,333,5.0,-999.0,81,-99.99,,,0.00,weatherlink.com 1.10,2013-03-26 08:20:00,
2013-03-26 04:35:00,32.3,27.0,30.11,NW,318,9.0,-999.0,81,-99.99,,,0.00,weatherlink.com 1.10,2013-03-26 08:35:00,
2013-03-26 04:50:00,32.3,26.0,30.11,NW,319,10.0,-999.0,79,-99.99,,,0.00,weatherlink.com 1.10,2013-03-26 08:50:00,
2013-03-26 05:05:00,32.1,27.0,30.10,NNW,331,9.0,-999.0,80,-99.99,,,0.00,weatherlink.com 1.10,2013-03-26 09:05:00,
2013-03-26 05:20:00,32.1,26.0,30.11,NNW,346,14.0,-999.0,79,-99.99,,,0.00,weatherlink.com 1.10,2013-03-26 09:20:00,
2013-03-26 05:35:00,32.0,26.0,30.11,NNW,340,10.0,-999.0,79,-99.99,,,0.00,weatherlink.com 1.10,2013-03-26 09:35:00,
2013-03-26 05:50:00,31.9,26.0,30.11,NW,324,10.0,-999.0,79,-99.99,,,0.00,weatherlink.com 1.10,2013-03-26 09:50:00,
2013-03-26 06:05:00,31.8,26.0,30.12,North,360,11.0,-999.0,80,-99.99,,,0.00,weatherlink.com 1.10,2013-03-26 10:05:00,
2013-03-26 06:20:00,31.7,26.0,30.12,NNW,344,9.0,-999.0,79,-99.99,,,0.00,weatherlink.com 1.10,2013-03-26 10:20:00,
2013-03-26 06:35:00,31.6,26.0,30.13,NNW,329,16.0,-999.0,81,-99.99,,,0.00,weatherlink.com 1.10,2013-03-26 10:35:00,
2013-03-26 06:50:00,31.5,26.0,30.13,NNW,348,11.0,-999.0,80,-99.99,,,0.00,weatherlink.com 1.10,2013-03-26 10:50:00,
2013-03-26 07:05:00,31.3,26.0,30.14,North,355,12.0,-999.0,81,-99.99,,,0.00,weatherlink.com 1.10,2013-03-26 11:05:00,
2013-03-26 07:20:00,31.2,26.0,30.14,North,9,8.0,-999.0,81,-99.99,,,0.00,weatherlink.com 1.10,2013-03-26 11:20:00,
2013-03-26 07:35:00,31.1,26.0,30.15,NNW,331,10.0,-999.0,81,-99.99,,,0.00,weatherlink.com 1.10,2013-03-26 11:35:00,
2013-03-26 07:50:00,31.0,26.0,30.16,NNW,344,7.0,-999.0,81,-99.99,,,0.00,weatherlink.com 1.10,2013-03-26 11:50:00,
2013-03-26 08:05:00,30.9,25.0,30.16,NNW,329,13.0,-999.0,80,-99.99,,,0.00,weatherlink.com 1.10,2013-03-26 12:05:00,
2013-03-26 08:20:00,30.8,26.0,30.16,NNW,340,6.0,-999.0,82,-99.99,,,0.00,weatherlink.com 1.10,2013-03-26 12:20:00,
2013-03-26 08:36:00,30.8,26.0,30.17,NW,315,7.0,-999.0,83,-99.99,,,0.00,weatherlink.com 1.10,2013-03-26 12:36:00,
2013-03-26 08:51:00,30.8,26.0,30.18,North,360,6.0,-999.0,83,-99.99,,,0.00,weatherlink.com 1.10,2013-03-26 12:51:00,
2013-03-26 09:06:00,30.8,26.0,30.19,NNW,336,10.0,-999.0,82,-99.99,,,0.00,weatherlink.com 1.10,2013-03-26 13:06:00,
2013-03-26 09:21:00,30.8,26.0,30.19,NW,309,5.0,-999.0,82,-99.99,,,0.00,weatherlink.com 1.10,2013-03-26 13:21:00,
2013-03-26 10:06:00,32.3,26.0,30.21,NNW,332,15.0,-999.0,79,-99.99,,,0.00,weatherlink.com 1.10,2013-03-26 14:06:00,
2013-03-26 11:22:00,33.4,27.0,30.23,North,355,5.0,-999.0,76,-99.99,,,0.00,weatherlink.com 1.10,2013-03-26 15:22:00,
2013-03-26 11:36:00,34.0,27.0,30.23,NW,314,8.0,-999.0,75,-99.99,,,0.00,weatherlink.com 1.10,2013-03-26 15:36:00,
2013-03-26 11:51:00,34.2,27.0,30.23,North,5,8.0,-999.0,74,-99.99,,,0.00,weatherlink.com 1.10,2013-03-26 15:51:00,
2013-03-26 12:06:00,34.6,27.0,30.24,North,5,6.0,-999.0,73,-99.99,,,0.00,weatherlink.com 1.10,2013-03-26 16:06:00,
2013-03-26 12:21:00,35.2,26.0,30.24,NW,321,10.0,-999.0,68,-99.99,,,0.00,weatherlink.com 1.10,2013-03-26 16:21:00,
2013-03-26 12:36:00,34.6,26.0,30.25,NNW,344,11.0,-999.0,71,-99.99,,,0.00,weatherlink.com 1.10,2013-03-26 16:36:00,
2013-03-26 12:51:00,35.2,26.0,30.25,North,355,14.0,-999.0,70,-99.99,,,0.00,weatherlink.com 1.10,2013-03-26 16:51:00,
2013-03-26 13:21:00,36.0,26.0,30.25,NW,325,7.0,-999.0,67,-99.99,,,0.00,weatherlink.com 1.10,2013-03-26 17:21:00,
2013-03-26 13:36:00,35.9,26.0,30.25,North,355,8.0,-999.0,68,-99.99,,,0.00,weatherlink.com 1.10,2013-03-26 17:36:00,
2013-03-26 13:51:00,36.5,27.0,30.25,North,360,11.0,-999.0,69,-99.99,,,0.00,weatherlink.com 1.10,2013-03-26 17:51:00,
2013-03-26 14:06:00,36.1,27.0,30.25,NW,325,8.0,-999.0,70,-99.99,,,0.00,weatherlink.com 1.10,2013-03-26 18:06:00,
2013-03-26 14:21:00,36.7,27.0,30.25,NW,310,9.0,-999.0,69,-99.99,,,0.00,weatherlink.com 1.10,2013-03-26 18:21:00,
2013-03-26 14:36:00,36.4,27.0,30.25,North,360,11.0,-999.0,69,-99.99,,,0.00,weatherlink.com 1.10,2013-03-26 18:36:00,
2013-03-26 14:51:00,36.6,27.0,30.25,North,355,5.0,-999.0,68,-99.99,,,0.00,weatherlink.com 1.10,2013-03-26 18:51:00,
2013-03-26 15:06:00,36.6,27.0,30.25,North,5,7.0,-999.0,69,-99.99,,,0.00,weatherlink.com 1.10,2013-03-26 19:06:00,
2013-03-26 15:21:00,36.4,27.0,30.25,North,5,5.0,-999.0,70,-99.99,,,0.00,weatherlink.com 1.10,2013-03-26 19:21:00,
2013-03-26 15:36:00,37.1,28.0,30.25,North,10,11.0,-999.0,70,-99.99,,,0.00,weatherlink.com 1.10,2013-03-26 19:36:00,
2013-03-26 16:06:00,37.4,27.0,30.25,North,355,9.0,-999.0,66,-99.99,,,0.00,weatherlink.com 1.10,2013-03-26 20:06:00,
2013-03-26 16:21:00,37.1,26.0,30.25,North,355,13.0,-999.0,65,-99.99,,,0.00,weatherlink.com 1.10,2013-03-26 20:21:00,
2013-03-26 16:36:00,38.0,27.0,30.24,NNE,19,12.0,-999.0,64,-99.99,,,0.00,weatherlink.com 1.10,2013-03-26 20:36:00,
2013-03-26 16:51:00,37.7,27.0,30.25,NNE,13,15.0,-999.0,65,-99.99,,,0.00,weatherlink.com 1.10,2013-03-26 20:51:00,
2013-03-26 17:06:00,37.5,27.0,30.25,NNW,328,12.0,-999.0,66,-99.99,,,0.00,weatherlink.com 1.10,2013-03-26 21:06:00,
2013-03-26 17:21:00,37.5,27.0,30.25,North,355,11.0,-999.0,67,-99.99,,,0.00,weatherlink.com 1.10,2013-03-26 21:21:00,
2013-03-26 17:36:00,37.8,28.0,30.25,North,360,5.0,-999.0,68,-99.99,,,0.00,weatherlink.com 1.10,2013-03-26 21:36:00,
2013-03-26 17:51:00,38.0,29.0,30.25,North,355,10.0,-999.0,69,-99.99,,,0.00,weatherlink.com 1.10,2013-03-26 21:51:00,
2013-03-26 18:06:00,37.9,28.0,30.25,NNW,327,13.0,-999.0,67,-99.99,,,0.00,weatherlink.com 1.10,2013-03-26 22:06:00,
2013-03-26 18:21:00,37.8,28.0,30.26,NNW,330,11.0,-999.0,68,-99.99,,,0.00,weatherlink.com 1.10,2013-03-26 22:21:00,
2013-03-26 18:36:00,38.0,28.0,30.26,NNW,342,9.0,-999.0,68,-99.99,,,0.00,weatherlink.com 1.10,2013-03-26 22:36:00,
2013-03-26 18:51:00,38.0,27.0,30.27,NNW,341,8.0,-999.0,64,-99.99,,,0.00,weatherlink.com 1.10,2013-03-26 22:51:00,
2013-03-26 19:06:00,37.7,27.0,30.27,NNE,31,11.0,-999.0,66,-99.99,,,0.00,weatherlink.com 1.10,2013-03-26 23:06:00,
2013-03-26 19:37:00,37.2,28.0,30.28,North,360,5.0,-999.0,69,-99.99,,,0.00,weatherlink.com 1.10,2013-03-26 23:37:00,
2013-03-26 19:52:00,37.0,28.0,30.28,NNW,342,5.0,-999.0,69,-99.99,,,0.00,weatherlink.com 1.10,2013-03-26 23:52:00,
2013-03-26 20:07:00,36.9,28.0,30.28,NNW,345,5.0,-999.0,70,-99.99,,,0.00,weatherlink.com 1.10,2013-03-27 00:07:00,
2013-03-26 20:22:00,36.7,28.0,30.29,North,5,8.0,-999.0,70,-99.99,,,0.00,weatherlink.com 1.10,2013-03-27 00:22:00,
2013-03-26 20:37:00,36.5,28.0,30.29,NNW,346,3.0,-999.0,71,-99.99,,,0.00,weatherlink.com 1.10,2013-03-27 00:37:00,
2013-03-26 20:52:00,35.9,28.0,30.29,NNW,338,4.0,-999.0,72,-99.99,,,0.00,weatherlink.com 1.10,2013-03-27 00:52:00,
2013-03-26 21:10:00,35.7,28.0,30.30,NNW,339,0.0,-999.0,73,-99.99,,,0.00,weatherlink.com 1.10,2013-03-27 01:10:00,
2013-03-26 21:22:00,35.7,28.0,30.30,NNW,339,0.0,-999.0,74,-99.99,,,0.00,weatherlink.com 1.10,2013-03-27 01:22:00,
2013-03-26 21:37:00,35.7,28.0,30.31,NNW,329,0.0,-999.0,74,-99.99,,,0.00,weatherlink.com 1.10,2013-03-27 01:37:00,
2013-03-26 21:52:00,35.7,28.0,30.31,NNW,329,0.0,-999.0,74,-99.99,,,0.00,weatherlink.com 1.10,2013-03-27 01:52:00,
2013-03-26 22:07:00,35.7,29.0,30.31,NNW,329,0.0,-999.0,75,-99.99,,,0.00,weatherlink.com 1.10,2013-03-27 02:07:00,
2013-03-26 22:22:00,35.5,28.0,30.32,NNW,329,0.0,-999.0,75,-99.99,,,0.00,weatherlink.com 1.10,2013-03-27 02:22:00,
2013-03-26 22:37:00,35.5,28.0,30.32,NNW,329,0.0,-999.0,75,-99.99,,,0.00,weatherlink.com 1.10,2013-03-27 02:37:00,
2013-03-26 23:07:00,35.5,28.0,30.32,NNW,329,0.0,-999.0,75,-99.99,,,0.00,weatherlink.com 1.10,2013-03-27 03:07:00,
2013-03-26 23:22:00,35.4,29.0,30.33,NNW,329,0.0,-999.0,76,-99.99,,,0.00,weatherlink.com 1.10,2013-03-27 03:22:00,
2013-03-26 23:37:00,35.5,28.0,30.33,NNW,344,0.0,-999.0,75,-99.99,,,0.00,weatherlink.com 1.10,2013-03-27 03:37:00,
2013-03-26 23:52:00,35.5,28.0,30.32,NNW,344,0.0,-999.0,75,-99.99,,,0.00,weatherlink.com 1.10,2013-03-27 03:52:00,